Weather History for Massena, NY

Change the Weather History Date:

Monday, May 12, 2014

  Actual Average Record
Temperature  
Mean Temperature 59 °F 54 °F  
Max Temperature 73 °F 66 °F 86 °F (1992)
Min Temperature 44 °F 42 °F 29 °F (1962)
Degree Days  
Heating Degree Days 4    
Cooling Degree Days 0 0  
Month to date cooling degree days 0 0  
Year to date cooling degree days 0 1  
Growing Degree Days 10 (Base 50)    
Moisture  
Dew Point 43 °F    
Average Humidity 63    
Maximum Humidity 93    
Minimum Humidity 33    
Precipitation  
Precipitation 0.01 in 0.10 in 1.02 in (1952)
Month to date precipitation 0.60 1.14  
Year to date precipitation 8.42 10.00  
Sea Level Pressure  
Sea Level Pressure 30.10 in    
Wind  
Wind Speed 7 mph (WNW)    
Max Wind Speed 22 mph    
Max Gust Speed 30 mph    
Visibility 10 miles    
Events Rain    
T = Trace of Precipitation, MM = Missing Value Source: NWS Daily Summary

Daily Weather History Graph

Daily Weather History Graph

Search for Another Location

Airport:

Trip Planner

Search our weather history database for the weather conditions in past years. The results will help you decide how hot, cold, wet, or windy it might be!

Date:

Astronomy

May. 12, 2014 Rise Set
Actual Time 5:34 AM EDT 8:18 PM EDT
Civil Twilight 5:00 AM EDT 8:52 PM EDT
Nautical Twilight 4:17 AM EDT 9:34 PM EDT
Astronomical Twilight 3:28 AM EDT 10:24 PM EDT
Moon 6:07 PM EDT (5/12) 4:18 AM EDT (5/12)
Length of Visible Light 15h 51m
Length of Day
14h 44m
Waxing Gibbous, 95% of the Moon is Illuminated
May 12
Waxing Gibbous
May 14
Full
May 21
Last Quarter
May 28
New
Jun 5
First Quarter

Hourly Weather History & Observations

Time (EDT) Temp. Dew Point Humidity Pressure Visibility Wind Dir Wind Speed Gust Speed Precip Events Conditions
12:53 AM 53.1 °F 37.0 °F 55% 30.02 in 10.0 mi SW 6.9 mph - N/A   Clear
1:53 AM 51.1 °F 37.9 °F 61% 30.02 in 10.0 mi SW 6.9 mph - N/A   Clear
2:53 AM 51.1 °F 37.9 °F 61% 30.04 in 10.0 mi SW 5.8 mph - N/A   Clear
3:53 AM 50.0 °F 39.0 °F 66% 30.06 in 10.0 mi SW 8.1 mph - N/A   Clear
4:53 AM 48.9 °F 39.0 °F 69% 30.06 in 10.0 mi WSW 3.5 mph - N/A   Clear
5:53 AM 48.0 °F 39.0 °F 71% 30.07 in 10.0 mi West 4.6 mph - N/A   Clear
6:53 AM 51.1 °F 44.1 °F 77% 30.09 in 10.0 mi Calm Calm - N/A   Clear
7:53 AM 54.0 °F 44.1 °F 69% 30.12 in 10.0 mi NE 8.1 mph - N/A   Clear
8:53 AM 57.0 °F 44.1 °F 62% 30.11 in 10.0 mi NNE 9.2 mph - N/A   Clear
9:53 AM 60.8 °F 42.8 °F 52% 30.12 in 10.0 mi NNE 4.6 mph - N/A   Clear
10:53 AM 63.0 °F 42.1 °F 46% 30.13 in 10.0 mi Variable 3.5 mph - N/A   Mostly Cloudy
11:53 AM 66.0 °F 42.1 °F 42% 30.13 in 10.0 mi North - - N/A   Clear
12:53 PM 66.9 °F 39.9 °F 37% 30.11 in 10.0 mi Variable 4.6 mph - N/A   Clear
1:53 PM 70.0 °F 44.1 °F 39% 30.10 in 10.0 mi Variable 6.9 mph - N/A   Clear
2:53 PM 71.1 °F 42.1 °F 35% 30.09 in 10.0 mi North 4.6 mph - N/A   Scattered Clouds
3:53 PM 73.0 °F 43.0 °F 34% 30.09 in 10.0 mi Variable 6.9 mph - N/A   Clear
4:53 PM 70.0 °F 42.1 °F 36% 30.09 in 10.0 mi NNW 5.8 mph - N/A   Mostly Cloudy
5:53 PM 68.0 °F 44.1 °F 42% 30.10 in 10.0 mi WNW 5.8 mph - 0.00 in Rain Light Rain
6:53 PM 62.1 °F 54.0 °F 75% 30.11 in 10.0 mi SW 5.8 mph - 0.00 in Rain Light Rain
7:53 PM 60.1 °F 52.0 °F 75% 30.12 in 10.0 mi SW 6.9 mph - 0.01 in Rain Light Rain
8:53 PM 60.1 °F 53.1 °F 78% 30.12 in 10.0 mi Calm Calm - 0.00 in   Overcast
9:53 PM 57.9 °F 55.9 °F 93% 30.12 in 10.0 mi NE 3.5 mph - 0.00 in   Overcast
10:53 PM 59.0 °F 42.1 °F 53% 30.12 in 10.0 mi ENE 18.4 mph 27.6 mph N/A   Overcast
11:53 PM 57.0 °F 37.9 °F 49% 30.14 in 10.0 mi ENE 18.4 mph 24.2 mph N/A   Overcast